Regional Weather Roundup
Issued by NWS

Home | Current Version | Previous Version | Graphics & Text | Print | Product List | Glossary On
Versions: 1 2 3 4 5 6 7 8 9 10 11 12 13 14 15 16 17 18 19 20 21 22 23 24 25 26 27 28 29 30 31 32 33 34 35 36 37 38 39 40 41 42 43 44 45 46 47 48 49 50
953
ASUS43 KBIS 221110
RWRND

NORTH DAKOTA REGIONAL WEATHER ROUNDUP
NATIONAL WEATHER SERVICE BISMARCK ND
600 AM CDT TUE AUG 22 2017

NOTE: "FAIR" INDICATES FEW OR NO CLOUDS BELOW 12,000 FEET WITH NO
SIGNIFICANT WEATHER AND/OR OBSTRUCTIONS TO VISIBILITY.


NDZ001>003-009>011-017-221200-
NORTHWEST NORTH DAKOTA

CITY           SKY/WX    TMP DP  RH WIND       PRES   REMARKS
WILLISTON      CLOUDY    43  37  79 S3        30.18S
MINOT          CLEAR     50  41  71 SW9       30.13R
MINOT AFB      CLEAR     44  39  80 W9        30.11S
$$

NDZ018>021-031>035-040>046-221200-
SOUTHWEST NORTH DAKOTA

CITY           SKY/WX    TMP DP  RH WIND       PRES   REMARKS
BISMARCK       CLEAR     48  44  86 SW5       30.17R
DICKINSON      PTCLDY    44  38  79 W5        30.19R
GARRISON         N/A     43  39  86 CALM      30.15R
HETTINGER ARPT CLOUDY    40  36  86 CALM      30.22R
$$

NDZ004>008-012>016-024-026-027-054-221200-
NORTHEAST NORTH DAKOTA

CITY           SKY/WX    TMP DP  RH WIND       PRES   REMARKS
GRAND FORKS    PTCLDY    50  46  86 W7        30.00R
GRND FRKS AFB  CLEAR     51  44  77 NW8       30.02R
DEVILS LAKE    CLEAR     52  45  77 W9        30.08R
$$

NDZ022-023-025-028>030-036>039-047>053-221200-
SOUTHEAST NORTH DAKOTA

CITY           SKY/WX    TMP DP  RH WIND       PRES   REMARKS
FARGO          CLEAR     49  47  93 W6        30.03R
JAMESTOWN      CLEAR     50  45  83 W7        30.09R
$$





USA.gov is the U.S. government's official web portal to all federal, state and local government web resources and services.